When you browse on this site, cookies collect data to enhance your experience and personalize the content and advertising you see.
Visit our Privacy Policy to learn more. By continuing to use the site, you agree to this use of cookies and data.
  • en Suisse
  • Liste des pays
  • À 7 jours
  • Température de l'eau
  • Carte météo
  • Widgets météo
  • user-avatar
    Se connecter

    Météo par heure à Chester

    Ce jour, 23 Septembre, Lundi

    Heure Température Précipitation Vent Pression Humidité
    00:00 +14°C° 0 mm 2 m/s 752 mmHg 95%
    01:00 +14°C° 0 mm 2 m/s 752 mmHg 95%
    02:00 +13°C° 0 mm 2 m/s 752 mmHg 95%
    03:00 +13°C° 0 mm 2 m/s 752 mmHg 94%
    04:00 +13°C° 0 mm 2 m/s 753 mmHg 93%
    05:00 +12°C° 0 mm 2 m/s 753 mmHg 92%
    06:00 +12°C° 0 mm 2 m/s 754 mmHg 92%
    07:00 +12°C° 0 mm 3 m/s 754 mmHg 89%
    08:00 +13°C° 0 mm 3 m/s 754 mmHg 86%
    09:00 +16°C° 0 mm 3 m/s 754 mmHg 82%
    10:00 +17°C° 0 mm 4 m/s 754 mmHg 77%
    11:00 +17°C° 0 mm 5 m/s 754 mmHg 71%
    12:00 +19°C° 0 mm 5 m/s 754 mmHg 66%
    13:00 +19°C° 0 mm 6 m/s 754 mmHg 66%
    14:00 +19°C° 0 mm 6 m/s 753 mmHg 67%
    15:00 +19°C° 0 mm 6 m/s 752 mmHg 67%
    16:00 +17°C° 1.1 mm 7 m/s 752 mmHg 75%
    17:00 +16°C° 1.1 mm 7 m/s 752 mmHg 83%
    18:00 +15°C° 1.1 mm 7 m/s 751 mmHg 91%
    19:00 +15°C° 0.1 mm 7 m/s 751 mmHg 91%
    20:00 +15°C° 0.1 mm 6 m/s 751 mmHg 92%
    21:00 +15°C° 0.1 mm 6 m/s 751 mmHg 92%
    22:00 +15°C° 0.3 mm 5 m/s 751 mmHg 93%
    23:00 +15°C° 0.3 mm 5 m/s 751 mmHg 93%

    Demain, 24 Septembre, Mardi

    Heure Température Précipitation Vent Pression Humidité
    00:00 +15°C° 0.3 mm 4 m/s 751 mmHg 94%
    01:00 +15°C° 0.2 mm 4 m/s 750 mmHg 94%
    02:00 +15°C° 0.2 mm 4 m/s 750 mmHg 95%
    03:00 +15°C° 0.2 mm 4 m/s 750 mmHg 95%
    04:00 +15°C° 0.2 mm 4 m/s 749 mmHg 95%
    05:00 +15°C° 0.2 mm 4 m/s 749 mmHg 95%
    06:00 +14°C° 0.2 mm 4 m/s 748 mmHg 96%
    07:00 +15°C° 0.9 mm 4 m/s 748 mmHg 94%
    08:00 +17°C° 0.9 mm 4 m/s 747 mmHg 92%
    09:00 +18°C° 0.9 mm 3 m/s 747 mmHg 90%
    10:00 +18°C° 1.5 mm 3 m/s 747 mmHg 88%
    11:00 +18°C° 1.5 mm 3 m/s 747 mmHg 87%
    12:00 +18°C° 1.5 mm 3 m/s 747 mmHg 85%
    13:00 +18°C° 0.4 mm 3 m/s 747 mmHg 81%
    14:00 +18°C° 0.4 mm 3 m/s 747 mmHg 78%
    15:00 +18°C° 0.4 mm 4 m/s 747 mmHg 75%
    16:00 +17°C° 0 mm 3 m/s 747 mmHg 78%
    17:00 +16°C° 0 mm 3 m/s 746 mmHg 81%
    18:00 +15°C° 0 mm 2 m/s 746 mmHg 84%
    19:00 +14°C° 0 mm 3 m/s 746 mmHg 86%
    20:00 +14°C° 0 mm 3 m/s 746 mmHg 89%
    21:00 +13°C° 0 mm 3 m/s 746 mmHg 91%
    22:00 +13°C° 0.2 mm 3 m/s 746 mmHg 92%
    23:00 +13°C° 0.2 mm 4 m/s 746 mmHg 93%

    Après-demain, 25 Septembre, Mercredi

    Heure Température Précipitation Vent Pression Humidité
    00:00 +13°C° 0.2 mm 4 m/s 745 mmHg 94%
    01:00 +13°C° 0 mm 3 m/s 745 mmHg 94%
    02:00 +13°C° 0 mm 3 m/s 745 mmHg 95%
    03:00 +14°C° 0 mm 2 m/s 745 mmHg 95%
    04:00 +14°C° 0 mm 2 m/s 745 mmHg 95%
    05:00 +14°C° 0 mm 1 m/s 746 mmHg 95%
    06:00 +14°C° 0 mm 1 m/s 746 mmHg 95%
    07:00 +14°C° 0 mm 1 m/s 746 mmHg 94%
    08:00 +15°C° 0 mm 1 m/s 747 mmHg 92%
    09:00 +15°C° 0 mm 2 m/s 748 mmHg 91%
    10:00 +16°C° 0 mm 2 m/s 748 mmHg 88%
    11:00 +17°C° 0 mm 3 m/s 749 mmHg 84%
    12:00 +18°C° 0 mm 3 m/s 749 mmHg 80%
    13:00 +18°C° 0 mm 3 m/s 749 mmHg 77%
    14:00 +19°C° 0 mm 3 m/s 749 mmHg 74%
    15:00 +19°C° 0 mm 2 m/s 749 mmHg 71%
    16:00 +18°C° 0 mm 2 m/s 749 mmHg 76%
    17:00 +17°C° 0 mm 2 m/s 750 mmHg 81%
    18:00 +16°C° 0 mm 1 m/s 750 mmHg 86%
    19:00 +15°C° 0 mm 2 m/s 750 mmHg 87%
    20:00 +15°C° 0 mm 2 m/s 750 mmHg 89%
    21:00 +13°C° 0 mm 3 m/s 750 mmHg 90%
    22:00 +14°C° 0.3 mm 3 m/s 749 mmHg 91%
    23:00 +14°C° 0.3 mm 4 m/s 749 mmHg 92%

    26 Septembre, Jeudi

    Heure Température Précipitation Vent Pression Humidité
    00:00 +15°C° 0.3 mm 4 m/s 748 mmHg 93%
    01:00 +15°C° 0.2 mm 4 m/s 748 mmHg 93%
    02:00 +15°C° 0.2 mm 4 m/s 748 mmHg 92%
    03:00 +16°C° 0.2 mm 5 m/s 748 mmHg 91%
    04:00 +15°C° 0.1 mm 4 m/s 749 mmHg 90%
    05:00 +14°C° 0.1 mm 4 m/s 749 mmHg 89%
    06:00 +13°C° 0.1 mm 3 m/s 749 mmHg 89%
    07:00 +14°C° 0.1 mm 4 m/s 749 mmHg 85%
    08:00 +14°C° 0.1 mm 5 m/s 750 mmHg 81%
    09:00 +15°C° 0.1 mm 5 m/s 750 mmHg 77%
    10:00 +15°C° 0.1 mm 5 m/s 750 mmHg 73%
    11:00 +16°C° 0.1 mm 6 m/s 750 mmHg 69%
    12:00 +17°C° 0.1 mm 6 m/s 750 mmHg 64%
    13:00 +17°C° 0.1 mm 6 m/s 750 mmHg 63%
    14:00 +17°C° 0.1 mm 6 m/s 750 mmHg 62%
    15:00 +17°C° 0.1 mm 6 m/s 750 mmHg 61%
    16:00 +15°C° 0 mm 5 m/s 750 mmHg 66%
    17:00 +14°C° 0 mm 5 m/s 750 mmHg 70%
    18:00 +13°C° 0 mm 4 m/s 751 mmHg 75%
    19:00 +13°C° 0 mm 4 m/s 751 mmHg 77%
    20:00 +12°C° 0 mm 4 m/s 751 mmHg 79%
    21:00 +12°C° 0 mm 4 m/s 751 mmHg 80%
    22:00 +12°C° 0.1 mm 4 m/s 751 mmHg 82%
    23:00 +12°C° 0.1 mm 4 m/s 751 mmHg 83%

    27 Septembre, Vendredi

    Heure Température Précipitation Vent Pression Humidité
    00:00 +11°C° 0.1 mm 4 m/s 751 mmHg 85%
    01:00 +11°C° 0 mm 4 m/s 751 mmHg 85%
    02:00 +11°C° 0 mm 4 m/s 751 mmHg 86%
    03:00 +11°C° 0 mm 4 m/s 750 mmHg 86%
    04:00 +10°C° 0.1 mm 5 m/s 750 mmHg 85%
    05:00 +12°C° 0.1 mm 5 m/s 750 mmHg 84%
    06:00 +11°C° 0.1 mm 6 m/s 750 mmHg 84%
    07:00 +13°C° 0.1 mm 6 m/s 750 mmHg 82%
    08:00 +14°C° 0.1 mm 6 m/s 750 mmHg 80%
    09:00 +14°C° 0.1 mm 6 m/s 750 mmHg 78%
    10:00 +14°C° 0.3 mm 6 m/s 750 mmHg 78%
    11:00 +14°C° 0.3 mm 6 m/s 750 mmHg 79%
    12:00 +14°C° 0.3 mm 6 m/s 750 mmHg 79%
    13:00 +15°C° 0.2 mm 7 m/s 749 mmHg 77%
    14:00 +15°C° 0.2 mm 7 m/s 749 mmHg 76%
    15:00 +15°C° 0.2 mm 7 m/s 749 mmHg 74%
    16:00 +14°C° 0.1 mm 7 m/s 749 mmHg 75%
    17:00 +14°C° 0.1 mm 6 m/s 749 mmHg 77%
    18:00 +13°C° 0.1 mm 6 m/s 749 mmHg 78%
    19:00 +13°C° 0 mm 6 m/s 750 mmHg 79%
    20:00 +12°C° 0 mm 5 m/s 750 mmHg 81%
    21:00 +12°C° 0 mm 5 m/s 750 mmHg 82%
    22:00 +12°C° 0 mm 5 m/s 750 mmHg 82%
    23:00 +12°C° 0 mm 5 m/s 750 mmHg 82%

    28 Septembre, Samedi

    Heure Température Précipitation Vent Pression Humidité
    00:00 +10°C° 0 mm 5 m/s 750 mmHg 82%
    01:00 +10°C° 0 mm 6 m/s 750 mmHg 83%
    02:00 +11°C° 0 mm 6 m/s 749 mmHg 83%
    03:00 +11°C° 0 mm 7 m/s 749 mmHg 83%
    04:00 +11°C° 0.1 mm 6 m/s 750 mmHg 82%
    05:00 +10°C° 0.1 mm 6 m/s 750 mmHg 81%
    06:00 +10°C° 0.1 mm 5 m/s 751 mmHg 81%
    07:00 +12°C° 0 mm 5 m/s 751 mmHg 79%
    08:00 +13°C° 0 mm 6 m/s 752 mmHg 77%
    09:00 +14°C° 0 mm 6 m/s 752 mmHg 76%
    10:00 +14°C° 0.3 mm 6 m/s 752 mmHg 76%
    11:00 +14°C° 0.3 mm 6 m/s 752 mmHg 76%
    12:00 +15°C° 0.3 mm 6 m/s 753 mmHg 76%
    13:00 +15°C° 0.4 mm 7 m/s 753 mmHg 76%
    14:00 +15°C° 0.4 mm 7 m/s 752 mmHg 76%
    15:00 +15°C° 0.4 mm 7 m/s 752 mmHg 75%
    16:00 +14°C° 0.1 mm 6 m/s 752 mmHg 78%
    17:00 +13°C° 0.1 mm 5 m/s 753 mmHg 81%
    18:00 +12°C° 0.1 mm 4 m/s 753 mmHg 83%
    19:00 +11°C° 0 mm 4 m/s 753 mmHg 85%
    20:00 +11°C° 0 mm 4 m/s 753 mmHg 86%
    21:00 +10°C° 0 mm 4 m/s 754 mmHg 88%
    22:00 +10°C° 0.1 mm 4 m/s 753 mmHg 88%
    23:00 +10°C° 0.1 mm 4 m/s 753 mmHg 89%
    Voir plus